{"data":{"norad_id":59621,"epoch":"2026-09-21T07:18:12.906720Z","epoch_age_seconds":98567,"freshness":"FRESH","line1":"1 59621U 24080W   26264.30431605  .00000869  00000+0  41095-4 0  9994","line2":"2 59621  43.0029   9.3476 0001319 259.9561 100.1142 15.27573947134493","mean_motion":15.27573947,"eccentricity":0.0001319,"inclination_deg":43.0029,"raan_deg":9.3476,"arg_perigee_deg":259.9561,"mean_anomaly_deg":100.1142,"bstar":4.1095e-5,"rev_number":13449,"period_min":94.267122244917,"perigee_km":482.16222812231,"apogee_km":483.9722137958,"semimajor_km":6861.2042209591,"source":"CELESTRAK","updated_at":"2026-09-22T09:00:49.014046Z"}}